Regional Weather Roundup
Issued by NWS Little Rock, AR

Home | Current Version | Previous Version | Graphics & Text | Print | Product List | Glossary On
Versions: 1 2 3 4 5 6 7 8 9 10 11 12 13 14 15 16 17 18 19 20 21 22 23 24 25 26 27 28 29 30 31 32 33 34 35 36 37 38 39 40 41 42 43 44 45 46 47 48 49 50
000
ASUS44 KLZK 261505
RWRLZK

WEATHER ROUNDUP FOR ARKANSAS
NATIONAL WEATHER SERVICE LITTLE ROCK AR
1000 AM CDT SAT JUL 26 2014

NOTE: "FAIR" INDICATES FEW OR NO CLOUDS BELOW 12,000 FEET WITH NO
SIGNIFICANT WEATHER AND/OR OBSTRUCTIONS TO VISIBILITY.

ARZ001-003-010-029-261600-
NORTHWEST ARKANSAS

CITY           SKY/WX    TMP DP  RH WIND       PRES   REMARKS
FAYETTEVILLE   SUNNY     83  71  67 SW13G20   30.02R HX  87
FORT SMITH     MOSUNNY   84  74  71 S3        29.99S HX  91
HARRISON       SUNNY     84  71  65 SW9       30.02R HX  89
BENTONVILLE    SUNNY     82  70  65 SW15      30.02S HX  86
ROGERS         SUNNY     84  69  60 SW12      30.02S HX  88
SILOAM SPGS    SUNNY     82  70  65 SW13      30.03R HX  86
HIGHFILL       SUNNY     83  72  69 SW14      30.01  HX  88
SPRINGDALE     SUNNY     84  70  61 SW12G23   30.04R HX  88
$$

ARZ004-005-016-261600-
NORTH CENTRAL ARKANSAS

CITY           SKY/WX    TMP DP  RH WIND       PRES   REMARKS
BATESVILLE     SUNNY     84  75  74 SW9       29.99S HX  92
FLIPPIN        SUNNY     84  72  65 SW8G16    29.99F HX  89
MTN HOME       SUNNY     83  74  74 SW7       29.99  HX  89
$$

ARZ040-041-261600-
WEST CENTRAL ARKANSAS

CITY           SKY/WX    TMP DP  RH WIND       PRES   REMARKS
MENA           SUNNY     86  73  66 W10       30.04S HX  93
MOUNT IDA      SUNNY     84  72  67 VRB5      30.01S HX  89
$$

ARZ009-017-025-026-028-261600-
NORTHEAST ARKANSAS

CITY           SKY/WX    TMP DP  RH WIND       PRES   REMARKS
CORNING        FAIR      82  75  78 SW8       29.98S HX  89
JONESBORO      SUNNY     82  74  76 SW13      29.99S HX  88
NEWPORT        SUNNY     86  76  71 SW10      30.00S HX  96
WALNUT RIDGE   SUNNY     82  57  42 SW14      29.98R
BLYTHEVILLE    SUNNY     82  73  74 SW14G22   30.00S HX  87
$$

ARZ022-023-033-042-044-261600-
CENTRAL ARKANSAS

CITY           SKY/WX    TMP DP  RH WIND       PRES   REMARKS
LITTLE ROCK    PTSUNNY   84  73  69 SW8       30.02F HX  90
N LITTLE ROCK  PTSUNNY   83  76  79 SW10G16   30.02F HX  90
JACKSONVILLE   SUNNY     84  75  75 SW6       30.02F HX  92
SEARCY         SUNNY     85  75  71 SW9       30.01F HX  93
HOT SPRINGS    SUNNY     85  74  69 W10       30.03F HX  92
RUSSELLVILLE   MOSUNNY   82  74  76 VRB3      30.00F HX  88
CLINTON        FAIR      81  75  83 W5        30.01F HAZE    HX  86
$$

ARZ036-261600-
EAST ARKANSAS

CITY           SKY/WX    TMP DP  RH WIND       PRES   REMARKS
WEST MEMPHIS   SUNNY     82  75  79 SW6       30.01S HX  89
$$

ARZ050-053-066-070-073-261600-
SOUTHWEST ARKANSAS

CITY           SKY/WX    TMP DP  RH WIND       PRES   REMARKS
ARKADELPHIA    FAIR      86  78  76 SW7       30.03F HX  98
CAMDEN         SUNNY     86  73  66 SW6       30.04S HX  93
TEXARKANA      SUNNY     86  74  67 W10       30.04S HX  94
EL DORADO      SUNNY     85  75  72 W7        30.06S HX  93
DE QUEEN       SUNNY     82  75  79 SW6       30.01S HX  89
$$

ARZ056-057-069-261600-
SOUTHEAST ARKANSAS

CITY           SKY/WX    TMP DP  RH WIND       PRES   REMARKS
PINE BLUFF     SUNNY     85  74  69 SW8       30.04S HX  92
STUTTGART      SUNNY     86  75  70 SW10      30.04S HX  95
MONTICELLO       N/A     86  74  67 W8        30.04S HX  94

$$




USA.gov is the U.S. government's official web portal to all federal, state and local government web resources and services.